Location: Kimberly
(42.5380°N, 114.3640°W)
Time: 13:50:09
(UTC-06:00)

OTV 5 (USA 277) - Visible Passes

Search period start: 21 August 2019 00:00
Search period end: 31 August 2019 00:00
Orbit: 305 x 329 km, 54.5° (Epoch: 20 August)

Date Brightness Start Highest point End Pass type
(mag) Time Alt. Az. Time Alt. Az. Time Alt. Az.
21 Aug ? 04:00:37 11° NNE 04:00:37 11° NNE 04:01:05 10° NE visible
21 Aug ? 05:32:16 10° NW 05:34:53 65° NE 05:37:30 10° ESE visible
22 Aug ? 04:16:19 14° ENE 04:16:19 14° ENE 04:16:56 10° ENE visible
22 Aug ? 05:47:19 13° WNW 05:49:24 38° SW 05:51:52 10° SSE visible
22 Aug ? 22:07:02 10° SSW 22:07:05 10° SSW 22:07:05 10° SSW visible
23 Aug ? 06:03:49 14° SW 06:03:49 14° SW 06:05:14 10° SSW visible
23 Aug ? 22:21:31 10° WSW 22:23:23 37° W 22:23:23 37° W visible
24 Aug ? 21:02:11 10° SSW 21:04:31 27° SE 21:06:53 10° ENE visible
24 Aug ? 22:36:34 10° W 22:38:50 24° NNW 22:38:56 24° NNW visible
25 Aug ? 21:16:17 10° SW 21:18:59 84° SE 21:21:40 10° NE visible
25 Aug ? 22:52:09 10° NW 22:53:38 14° NNW 22:53:53 14° NNW visible
26 Aug ? 21:31:04 10° WSW 21:33:35 34° NNW 21:36:06 10° NE visible
27 Aug ? 21:46:23 10° WNW 21:48:19 18° NNW 21:50:16 10° NNE visible
28 Aug ? 22:02:19 10° NW 22:03:11 11° NNW 22:04:03 10° N visible
30 Aug ? 20:56:19 10° WNW 20:57:51 14° NNW 20:59:22 10° NNE visible
